Location: ????????
(38.4362°N, 22.8767°E)
Time: 18:09:42
(UTC+00:00)

ACS3 Solar Sail - Pass Details

Date: 26 June 2024
Orbit: 992 x 1023 km, 97.4° (Epoch: 14 July)

Event Time Altitude Azimuth Distance (km) Brightness Sun altitude
Exits shadow 18:18:49 - 109° (ESE) 3,314 6.9 -4.5°
Reaches altitude 10° 18:21:04 10° 94° (E) 2,761 6.7 -4.9°
Maximum altitude 18:24:25 15° 61° (ENE) 2,400 6.6 -5.4°
Drops below altitude 10° 18:27:44 10° 28° (NNE) 2,763 7.3 -5.9°
Sets 18:31:21 0° 7° (N) 3,716 8.3 -6.5°
